• In Hungary
  • List of Countries
  • For 7 days
  • Water Temperature
  • Satellite Maps
  • Weather Map
  • News
  • Weather Widgets
  • user-avatar
    Login

    Hourly Weather Ternovka

    Today, 23 September, Sunday

    Time Temperature Precipitation Wind Pressure Humidity
    00:00 +16°C° 0 mm 3 mps 749 mmHg 68%
    01:00 +16°C° 0 mm 3 mps 749 mmHg 69%
    02:00 +16°C° 0 mm 3 mps 748 mmHg 69%
    03:00 +16°C° 0 mm 3 mps 748 mmHg 70%
    04:00 +14°C° 0 mm 4 mps 748 mmHg 70%
    05:00 +14°C° 0 mm 4 mps 748 mmHg 71%
    06:00 +14°C° 0 mm 4 mps 748 mmHg 71%
    07:00 +16°C° 0 mm 5 mps 747 mmHg 64%
    08:00 +17°C° 0 mm 6 mps 747 mmHg 58%
    09:00 +20°C° 0 mm 7 mps 746 mmHg 51%
    10:00 +21°C° 0 mm 7 mps 746 mmHg 49%
    11:00 +23°C° 0 mm 7 mps 745 mmHg 46%
    12:00 +24°C° 0 mm 7 mps 745 mmHg 43%
    13:00 +26°C° 0 mm 7 mps 745 mmHg 43%
    14:00 +26°C° 0 mm 7 mps 744 mmHg 43%
    15:00 +26°C° 0 mm 7 mps 744 mmHg 43%
    16:00 +24°C° 0.4 mm 6 mps 743 mmHg 49%
    17:00 +22°C° 0.4 mm 6 mps 743 mmHg 54%
    18:00 +20°C° 0.4 mm 6 mps 743 mmHg 60%
    19:00 +17°C° 1.8 mm 6 mps 743 mmHg 67%
    20:00 +15°C° 1.8 mm 6 mps 743 mmHg 75%
    21:00 +13°C° 1.8 mm 6 mps 743 mmHg 82%
    22:00 +11°C° 2 mm 6 mps 743 mmHg 83%
    23:00 +10°C° 2 mm 5 mps 744 mmHg 84%

    Tomorrow, 24 September, Monday

    Time Temperature Precipitation Wind Pressure Humidity
    00:00 +9°C° 2 mm 5 mps 744 mmHg 85%
    01:00 +10°C° 0.2 mm 5 mps 744 mmHg 84%
    02:00 +11°C° 0.2 mm 4 mps 745 mmHg 84%
    03:00 +11°C° 0.2 mm 4 mps 745 mmHg 83%
    04:00 +10°C° 0 mm 4 mps 746 mmHg 86%
    05:00 +9°C° 0 mm 3 mps 746 mmHg 89%
    06:00 +9°C° 0 mm 3 mps 746 mmHg 92%
    07:00 +10°C° 0 mm 3 mps 746 mmHg 86%
    08:00 +11°C° 0 mm 3 mps 746 mmHg 79%
    09:00 +13°C° 0 mm 2 mps 747 mmHg 73%
    10:00 +15°C° 0 mm 2 mps 747 mmHg 66%
    11:00 +16°C° 0 mm 3 mps 747 mmHg 60%
    12:00 +17°C° 0 mm 3 mps 747 mmHg 54%
    13:00 +17°C° 0 mm 3 mps 746 mmHg 51%
    14:00 +18°C° 0 mm 3 mps 746 mmHg 49%
    15:00 +18°C° 0 mm 4 mps 745 mmHg 46%
    16:00 +17°C° 0 mm 4 mps 745 mmHg 50%
    17:00 +15°C° 0 mm 4 mps 744 mmHg 53%
    18:00 +14°C° 0 mm 4 mps 744 mmHg 56%
    19:00 +14°C° 0.1 mm 5 mps 743 mmHg 56%
    20:00 +14°C° 0.1 mm 6 mps 743 mmHg 55%
    21:00 +14°C° 0.1 mm 6 mps 742 mmHg 55%
    22:00 +14°C° 0.1 mm 7 mps 742 mmHg 54%
    23:00 +14°C° 0.1 mm 7 mps 741 mmHg 53%

    Day after tomorrow, 25 September, Tuesday

    Time Temperature Precipitation Wind Pressure Humidity
    00:00 +14°C° 0.1 mm 7 mps 741 mmHg 52%
    01:00 +14°C° 0.1 mm 7 mps 740 mmHg 52%
    02:00 +15°C° 0.1 mm 7 mps 739 mmHg 51%
    03:00 +15°C° 0.1 mm 7 mps 739 mmHg 51%
    04:00 +14°C° 0.6 mm 6 mps 739 mmHg 59%
    05:00 +14°C° 0.6 mm 6 mps 738 mmHg 67%
    06:00 +13°C° 0.6 mm 5 mps 738 mmHg 75%
    07:00 +13°C° 1.4 mm 5 mps 738 mmHg 78%
    08:00 +12°C° 1.4 mm 5 mps 739 mmHg 81%
    09:00 +12°C° 1.4 mm 5 mps 739 mmHg 84%
    10:00 +12°C° 0.2 mm 5 mps 739 mmHg 79%
    11:00 +11°C° 0.2 mm 6 mps 740 mmHg 74%
    12:00 +11°C° 0.2 mm 6 mps 740 mmHg 69%
    13:00 +13°C° 0 mm 6 mps 741 mmHg 67%
    14:00 +13°C° 0 mm 6 mps 741 mmHg 64%
    15:00 +13°C° 0 mm 6 mps 741 mmHg 62%
    16:00 +12°C° 0 mm 5 mps 742 mmHg 63%
    17:00 +12°C° 0 mm 4 mps 742 mmHg 65%
    18:00 +11°C° 0 mm 3 mps 743 mmHg 67%
    19:00 +10°C° 0 mm 3 mps 743 mmHg 70%
    20:00 +9°C° 0 mm 3 mps 743 mmHg 72%
    21:00 +9°C° 0 mm 3 mps 744 mmHg 75%
    22:00 +8°C° 0 mm 3 mps 744 mmHg 76%
    23:00 +8°C° 0 mm 3 mps 745 mmHg 77%

    26 September, Wednesday

    Time Temperature Precipitation Wind Pressure Humidity
    00:00 +7°C° 0 mm 3 mps 745 mmHg 79%
    01:00 +7°C° 0 mm 3 mps 746 mmHg 79%
    02:00 +5°C° 0 mm 3 mps 746 mmHg 80%
    03:00 +5°C° 0 mm 3 mps 747 mmHg 81%
    04:00 +5°C° 0 mm 3 mps 747 mmHg 81%
    05:00 +4°C° 0 mm 3 mps 747 mmHg 82%
    06:00 +4°C° 0 mm 3 mps 748 mmHg 82%
    07:00 +5°C° 0 mm 4 mps 748 mmHg 77%
    08:00 +6°C° 0 mm 4 mps 749 mmHg 72%
    09:00 +7°C° 0 mm 5 mps 749 mmHg 66%
    10:00 +8°C° 0 mm 5 mps 750 mmHg 62%
    11:00 +9°C° 0 mm 5 mps 750 mmHg 59%
    12:00 +10°C° 0 mm 5 mps 750 mmHg 55%
    13:00 +10°C° 0 mm 6 mps 751 mmHg 54%
    14:00 +10°C° 0 mm 6 mps 751 mmHg 52%
    15:00 +9°C° 0 mm 6 mps 751 mmHg 51%
    16:00 +9°C° 0 mm 5 mps 751 mmHg 52%
    17:00 +8°C° 0 mm 4 mps 752 mmHg 53%
    18:00 +8°C° 0 mm 3 mps 752 mmHg 54%
    19:00 +8°C° 0 mm 3 mps 752 mmHg 55%
    20:00 +7°C° 0 mm 3 mps 752 mmHg 56%
    21:00 +5°C° 0 mm 3 mps 753 mmHg 58%
    22:00 +5°C° 0 mm 3 mps 752 mmHg 59%
    23:00 +4°C° 0 mm 3 mps 752 mmHg 59%

    27 September, Thursday

    Time Temperature Precipitation Wind Pressure Humidity
    00:00 +4°C° 0 mm 3 mps 752 mmHg 60%
    01:00 +4°C° 0 mm 4 mps 752 mmHg 60%
    02:00 +4°C° 0 mm 4 mps 752 mmHg 61%
    03:00 +4°C° 0 mm 4 mps 752 mmHg 61%
    04:00 +3°C° 0 mm 5 mps 751 mmHg 61%
    05:00 +3°C° 0 mm 5 mps 751 mmHg 62%
    06:00 +3°C° 0 mm 5 mps 751 mmHg 63%
    07:00 +4°C° 0 mm 6 mps 750 mmHg 61%
    08:00 +5°C° 0 mm 7 mps 750 mmHg 59%
    09:00 +6°C° 0 mm 8 mps 750 mmHg 57%
    10:00 +7°C° 0.1 mm 8 mps 749 mmHg 55%
    11:00 +8°C° 0.1 mm 9 mps 749 mmHg 52%
    12:00 +9°C° 0.1 mm 10 mps 748 mmHg 50%
    13:00 +10°C° 0 mm 9 mps 748 mmHg 49%
    14:00 +11°C° 0 mm 8 mps 747 mmHg 47%
    15:00 +12°C° 0 mm 8 mps 747 mmHg 46%
    16:00 +11°C° 0 mm 7 mps 746 mmHg 47%
    17:00 +11°C° 0 mm 6 mps 746 mmHg 48%
    18:00 +11°C° 0 mm 6 mps 746 mmHg 48%
    19:00 +11°C° 0 mm 6 mps 745 mmHg 48%
    20:00 +11°C° 0 mm 7 mps 745 mmHg 48%
    21:00 +11°C° 0 mm 7 mps 745 mmHg 47%
    22:00 +11°C° 0 mm 7 mps 745 mmHg 49%
    23:00 +11°C° 0 mm 8 mps 744 mmHg 50%

    28 September, Friday

    Time Temperature Precipitation Wind Pressure Humidity
    00:00 +11°C° 0 mm 8 mps 744 mmHg 52%
    01:00 +11°C° 0 mm 8 mps 743 mmHg 53%
    02:00 +11°C° 0 mm 7 mps 743 mmHg 55%
    03:00 +11°C° 0 mm 7 mps 743 mmHg 57%
    04:00 +11°C° 0 mm 7 mps 743 mmHg 58%
    05:00 +11°C° 0 mm 7 mps 743 mmHg 60%
    06:00 +11°C° 0 mm 7 mps 743 mmHg 61%
    07:00 +12°C° 0 mm 7 mps 743 mmHg 62%
    08:00 +12°C° 0 mm 7 mps 743 mmHg 62%
    09:00 +13°C° 0 mm 8 mps 743 mmHg 63%
    10:00 +15°C° 0 mm 8 mps 743 mmHg 59%
    11:00 +16°C° 0 mm 8 mps 744 mmHg 56%
    12:00 +17°C° 0 mm 9 mps 744 mmHg 53%
    13:00 +17°C° 0 mm 8 mps 744 mmHg 53%
    14:00 +17°C° 0 mm 7 mps 743 mmHg 53%
    15:00 +17°C° 0 mm 7 mps 743 mmHg 53%
    16:00 +17°C° 0 mm 5 mps 743 mmHg 57%
    17:00 +17°C° 0 mm 4 mps 743 mmHg 60%
    18:00 +16°C° 0 mm 3 mps 743 mmHg 64%
    19:00 +15°C° 0 mm 4 mps 743 mmHg 65%
    20:00 +14°C° 0 mm 4 mps 743 mmHg 67%
    21:00 +14°C° 0 mm 5 mps 742 mmHg 68%
    22:00 +14°C° 0.4 mm 5 mps 742 mmHg 70%
    23:00 +14°C° 0.4 mm 6 mps 743 mmHg 72%
    Show more